ECMWFFLT2_850_thetae_021.txt.gz
Theta_e
331 330 330 331 328 326 330 330 327 330 335 332 326 325 326 324 324 325 324 325 332 336 340 343 342 343 344 342 342 342 342 344 343 343 345 344 344 346 346 346 346 347 348 350 352 352 352 352 352 352 350 345 341 335 330 329 330 329 327 324 322 321 321
331 330 329 331 330 330 329 325 327 333 330 329 331 326 324 323 322 323 322 323 327 328 332 341 342 341 343 344 345 344 343 344 343 344 344 343 345 345 346 347 346 347 349 350 352 353 353 352 351 351 350 345 341 336 330 328 329 328 328 324 322 321 320
331 331 328 328 329 331 331 327 330 331 323 323 328 324 324 326 323 323 324 325 326 328 333 339 339 339 343 344 346 346 344 344 345 345 344 344 344 345 347 348 347 348 350 351 352 353 353 353 352 351 350 349 345 339 332 328 327 327 327 324 321 320 319
330 330 327 324 326 330 332 330 330 330 327 326 327 325 328 329 325 325 325 325 329 336 340 340 338 340 343 342 345 347 343 344 347 346 345 345 344 346 347 348 348 349 350 351 352 353 353 353 352 352 352 351 348 342 334 328 328 329 329 326 321 320 319
327 326 327 326 327 330 329 327 326 326 328 329 329 327 326 329 328 326 324 325 332 344 348 346 342 342 344 344 349 349 341 341 347 347 346 346 345 347 347 348 349 349 350 351 352 352 353 354 353 354 354 352 349 344 337 331 329 330 331 327 322 320 319
323 325 330 330 330 330 329 328 326 325 328 326 324 324 323 328 331 327 325 326 332 343 348 347 345 343 344 346 347 345 338 338 343 345 345 346 346 348 348 348 350 349 351 352 353 354 355 356 355 355 354 353 349 345 340 334 331 331 332 327 322 320 319
325 329 331 330 331 332 330 331 329 329 331 324 322 326 327 325 327 327 329 329 335 349 355 350 345 340 339 339 339 338 336 338 341 340 341 344 345 348 348 349 350 350 351 352 353 355 357 357 357 356 355 353 349 345 341 337 333 332 332 328 322 320 321
329 331 333 330 331 332 328 329 331 329 330 325 330 342 339 327 324 326 329 329 335 352 359 349 341 337 334 334 335 337 337 339 339 338 340 343 344 346 348 349 350 351 352 353 353 355 358 358 357 356 354 352 349 346 344 340 335 333 333 330 322 320 326
324 324 327 327 328 329 328 331 331 329 332 328 330 342 339 329 326 329 331 329 333 348 354 344 340 341 339 335 333 336 337 336 337 336 337 344 347 348 348 348 349 350 351 352 353 354 355 356 356 355 354 352 350 348 346 343 338 335 335 330 323 325 333
325 326 329 329 328 327 328 330 329 330 332 328 328 331 328 328 331 333 334 333 337 348 351 346 346 347 344 340 334 336 337 335 337 336 335 343 348 349 349 348 348 348 349 350 351 352 353 354 354 354 353 352 350 349 348 346 342 340 337 331 328 333 338
330 336 341 340 333 326 325 327 328 330 329 329 333 327 325 336 340 332 335 339 338 343 347 347 348 348 349 349 341 338 337 336 337 337 336 341 346 348 349 349 348 348 348 349 349 350 351 352 352 353 353 352 350 349 349 348 344 342 339 336 336 339 339
337 340 338 334 331 328 325 326 327 329 329 330 331 324 330 347 338 326 338 348 337 337 345 348 349 350 355 355 344 338 337 336 336 337 339 342 346 349 351 351 350 350 348 349 349 350 351 352 352 351 352 351 349 347 347 347 344 342 341 339 339 339 338
337 336 331 330 332 330 329 329 326 328 329 327 328 330 340 349 335 329 343 349 341 339 342 346 348 347 346 346 342 337 336 337 336 336 340 345 347 351 355 355 353 352 351 351 351 351 352 352 351 351 350 349 348 346 344 344 343 342 341 340 339 338 337
330 330 330 331 330 328 328 329 329 329 330 329 328 332 340 345 345 347 350 348 346 342 340 343 344 339 338 338 337 335 336 338 338 337 341 349 352 353 356 358 357 354 353 352 352 352 352 351 351 350 349 347 346 345 343 343 343 342 341 340 338 337 335
328 330 330 330 329 329 327 327 331 331 330 332 330 329 333 336 341 351 352 348 348 343 339 343 340 336 339 339 337 336 336 336 337 336 338 345 352 354 354 356 358 356 355 354 352 353 352 351 351 350 348 346 344 344 344 342 341 341 341 340 337 334 334
325 328 330 328 327 328 325 325 330 330 329 331 331 333 336 332 334 345 347 342 346 346 344 345 342 341 342 340 338 338 337 336 336 336 335 336 343 349 350 350 353 354 355 354 353 353 352 351 350 347 346 347 345 345 343 339 339 339 338 338 334 332 334
325 327 328 329 326 324 323 325 328 331 332 333 332 333 335 335 340 347 343 339 345 351 349 346 347 348 346 342 339 338 339 339 339 340 340 339 339 345 350 351 351 351 354 355 355 354 353 351 349 347 346 348 347 345 340 337 336 336 335 334 333 333 336
324 330 331 328 324 323 328 334 334 334 334 333 334 334 335 341 347 347 344 343 347 348 347 348 349 347 343 338 335 336 335 336 337 338 339 340 340 343 348 353 354 353 354 355 355 354 353 352 350 348 348 348 347 343 339 336 336 336 335 333 332 334 335
329 337 339 328 322 326 338 344 339 335 335 336 337 340 342 344 345 346 345 346 351 349 343 342 341 337 335 334 333 334 334 333 336 337 336 337 339 339 342 347 351 353 352 352 351 352 353 352 351 350 350 348 345 341 339 338 337 337 336 334 332 333 335
330 332 333 329 328 336 345 344 337 335 340 344 342 342 346 345 344 349 347 343 351 349 338 335 337 334 333 335 334 334 335 335 335 336 336 336 336 336 336 338 342 347 349 349 349 350 352 353 351 351 350 348 344 341 340 339 338 338 336 334 333 335 336
330 326 328 332 332 334 340 342 340 336 338 343 341 339 345 347 345 351 352 346 349 348 338 334 334 334 337 341 338 334 335 335 334 334 335 335 334 335 337 337 339 342 345 347 348 350 352 352 351 350 349 347 345 342 340 339 339 338 336 334 334 336 337
334 326 326 330 326 325 334 340 342 338 333 338 342 339 345 352 346 343 348 348 347 348 343 336 332 338 348 347 340 336 336 336 336 336 335 335 335 336 339 342 343 346 350 351 351 352 354 353 352 351 350 348 347 345 342 340 340 338 336 334 335 336 335
336 329 327 327 323 328 344 347 343 337 332 338 344 337 340 352 346 336 342 349 346 344 342 337 337 348 353 345 337 335 336 335 336 337 336 336 338 340 342 344 346 352 357 358 356 356 357 355 355 354 352 351 350 348 346 343 341 338 335 335 335 335 335
335 334 331 328 329 341 353 345 337 336 334 341 347 336 337 348 344 335 339 344 341 337 334 336 344 351 350 344 337 334 333 332 335 338 338 338 341 344 344 345 349 354 358 359 360 360 359 357 357 356 354 353 351 350 348 343 339 336 335 334 334 334 335
331 331 328 327 334 349 351 339 335 335 334 340 342 337 340 343 339 334 335 336 336 335 332 336 342 343 338 336 335 333 332 333 335 338 339 340 343 344 343 343 348 353 357 359 360 359 359 358 356 354 353 352 349 348 346 341 337 336 335 335 334 335 336
334 335 334 331 335 344 342 334 334 334 337 342 342 339 339 337 334 336 336 333 334 334 333 334 336 335 333 333 334 333 331 334 338 341 341 341 343 344 341 340 343 349 355 358 359 358 358 356 354 353 352 350 347 345 343 341 339 339 338 338 338 338 339
346 343 341 336 337 343 338 337 346 348 347 349 345 337 335 335 334 336 336 335 336 334 333 335 334 333 334 334 334 333 331 334 340 343 341 341 343 343 339 339 343 349 354 356 356 356 355 354 352 351 350 347 344 343 343 343 342 341 342 343 344 344 344
351 345 344 343 343 343 337 341 353 353 344 342 339 335 335 335 334 335 335 336 335 334 334 335 333 334 336 335 336 336 333 334 340 343 343 344 342 339 339 344 349 352 355 356 352 350 351 351 350 349 347 346 345 344 344 345 344 344 344 343 341 340 341
348 346 350 349 342 338 336 338 343 342 338 338 337 335 335 335 334 335 335 334 333 332 332 333 333 335 337 336 336 336 334 336 340 343 344 343 338 337 344 352 355 355 356 352 347 345 348 349 348 347 345 344 344 344 344 344 341 339 335 330 327 327 329
346 340 342 341 335 333 335 336 336 336 337 337 335 333 334 335 336 336 334 334 334 333 332 332 333 334 335 335 336 336 336 339 342 342 342 341 339 342 351 354 354 354 352 346 341 343 344 345 346 345 343 343 344 342 340 336 332 329 327 325 324 324 326
344 342 343 340 335 334 334 334 335 336 335 334 334 335 335 335 336 334 332 332 335 335 335 336 336 336 337 336 336 336 339 342 343 342 342 341 343 348 351 348 346 346 345 340 339 341 343 343 345 345 344 345 342 336 332 329 327 326 326 327 325 325 327
346 347 344 337 333 333 332 332 333 333 333 334 334 334 335 335 335 334 332 333 335 335 336 337 336 336 338 337 337 338 340 343 343 342 341 341 344 346 345 342 342 342 340 337 336 340 343 344 344 342 341 339 335 331 328 326 325 323 323 325 326 326 327
349 348 342 338 337 335 331 332 332 330 331 333 332 332 333 332 333 333 333 335 337 337 337 337 336 337 339 339 339 340 341 342 342 340 340 341 344 344 341 340 342 341 339 337 336 338 341 342 340 337 335 331 329 327 325 323 322 321 320 322 323 323 324
351 350 345 342 343 339 331 330 331 329 330 331 330 330 329 328 329 331 331 333 335 337 337 336 337 337 337 337 339 341 342 343 342 340 339 340 341 341 339 339 340 339 339 340 338 336 338 338 336 332 328 324 323 323 322 322 322 321 319 319 319 320 320
344 342 337 335 337 335 329 329 330 330 329 329 328 328 328 327 327 327 328 328 330 334 337 336 336 336 335 334 337 339 340 340 341 341 340 339 339 339 338 338 338 337 338 340 338 335 334 333 329 326 324 322 321 322 322 322 321 319 318 318 318 318 319
331 329 328 327 329 329 327 327 329 329 328 328 327 326 326 326 325 325 326 326 326 330 334 334 333 335 335 335 336 337 338 338 338 338 339 339 338 337 336 337 338 338 337 337 334 330 327 325 324 324 324 323 323 323 323 321 319 319 319 319 318 318 319
324 324 324 324 325 326 326 326 326 326 326 325 325 325 325 325 325 325 325 325 325 326 328 329 330 332 335 336 337 337 336 335 335 336 338 338 336 334 333 335 337 336 334 331 328 324 323 323 324 324 323 324 326 326 323 321 320 320 319 319 319 319 320

ECMWFFLT2_850_thetae_024.txt.gz
Theta_e
330 328 330 328 327 330 330 326 326 329 334 335 327 327 337 331 324 331 332 331 338 340 344 353 347 345 347 341 341 340 339 341 341 341 342 343 346 348 348 349 348 350 350 349 349 348 348 349 348 349 350 349 348 344 342 339 332 328 328 327 324 324 323
329 327 328 329 328 335 332 322 326 333 329 335 340 331 330 327 324 332 334 326 328 331 336 350 353 348 347 345 344 340 339 340 339 341 342 342 346 347 347 349 348 349 349 348 349 348 348 348 346 348 348 348 348 344 340 337 332 329 329 328 325 323 322
329 329 326 327 327 329 330 326 329 332 322 325 334 327 324 326 325 329 333 330 330 333 338 349 349 348 348 346 345 343 341 339 339 341 342 341 345 347 347 349 348 348 349 349 349 348 348 347 347 347 347 349 349 346 342 337 333 329 329 329 326 324 322
328 329 325 323 324 326 329 330 329 331 328 325 326 325 326 326 326 328 330 329 333 344 357 354 345 348 348 344 345 344 340 340 339 340 342 342 343 346 347 348 348 348 348 348 348 347 347 347 347 349 348 349 349 347 344 340 334 330 329 330 328 325 322
325 325 326 324 326 326 325 326 325 325 327 328 326 328 330 327 329 332 328 328 341 360 365 354 344 344 345 342 345 345 340 340 341 340 342 342 343 345 346 347 347 347 347 348 348 347 347 348 349 350 350 350 349 348 346 343 338 331 329 330 329 326 323
321 324 330 328 327 329 326 327 328 324 326 328 322 324 328 328 332 334 328 328 343 360 354 348 345 343 343 343 342 343 340 339 341 341 342 343 343 344 345 346 347 347 347 348 348 349 349 350 351 351 350 351 350 349 347 346 341 333 330 330 330 327 324
326 326 330 328 326 330 328 328 329 328 333 330 321 323 330 329 328 333 335 331 341 361 355 343 345 343 339 340 340 339 340 341 342 343 341 343 343 343 345 345 346 347 347 347 348 349 350 350 350 350 351 352 351 349 348 348 344 337 331 330 331 330 324
331 328 329 328 329 328 326 329 329 327 332 331 332 342 341 332 324 329 337 332 337 366 363 340 338 339 334 336 339 339 340 342 343 343 343 343 343 343 344 344 346 347 346 348 349 350 351 350 351 352 352 352 351 351 351 348 346 340 333 331 332 331 326
323 325 326 323 327 328 327 333 331 326 333 332 336 346 338 329 328 330 333 329 335 361 360 337 335 338 335 336 337 340 342 342 343 344 342 343 342 343 345 345 347 347 347 349 349 350 351 351 353 353 352 353 352 352 351 350 348 344 337 333 333 332 328
321 322 325 324 327 330 329 332 330 328 332 326 330 336 326 324 333 336 332 331 339 353 348 336 338 339 338 338 335 338 343 341 344 344 342 344 343 344 346 345 347 348 347 349 349 350 351 351 352 353 353 353 353 353 352 351 350 347 341 336 334 334 330
325 330 343 346 336 328 324 327 327 329 329 328 335 336 328 332 338 336 338 338 335 341 342 340 341 338 340 342 336 336 339 340 344 344 342 345 344 344 346 345 347 348 348 349 350 350 350 351 352 353 353 353 354 353 353 352 352 349 345 339 335 336 332
326 336 355 356 336 324 324 326 327 328 329 331 333 330 333 345 337 328 341 347 334 335 342 341 339 339 341 342 336 335 337 339 341 341 341 342 342 342 344 345 347 348 348 349 350 350 351 351 352 353 353 353 354 354 353 353 352 350 347 342 337 337 333
328 331 338 341 332 327 328 328 327 328 329 329 330 333 343 347 332 327 341 346 336 335 340 338 336 337 338 337 335 336 337 338 338 337 337 339 340 341 343 345 347 347 348 349 349 350 351 352 353 354 354 355 355 355 354 353 352 350 348 344 339 338 334
331 330 330 333 331 327 327 327 330 330 330 329 328 335 344 342 337 340 344 342 339 337 336 335 334 333 334 334 335 335 336 336 337 338 338 338 339 342 342 345 345 346 348 348 348 350 351 352 354 355 356 356 356 356 355 354 352 350 349 345 342 339 334
328 329 331 331 328 329 327 327 332 332 330 332 329 331 338 337 338 344 342 339 342 339 336 335 332 332 335 335 334 335 336 336 337 338 338 337 339 342 342 344 345 345 346 347 347 349 350 351 353 354 355 356 355 356 355 353 352 350 349 347 344 340 336
324 328 330 329 328 330 325 325 333 332 329 333 332 332 336 336 341 347 340 336 341 341 341 338 334 334 337 335 334 335 335 336 337 338 340 340 341 342 343 344 346 346 346 347 348 348 348 350 351 352 353 355 355 354 353 352 351 350 348 347 345 341 338
324 329 331 333 333 325 322 330 335 331 335 337 334 338 340 340 353 355 340 336 342 344 343 343 342 341 338 335 334 335 336 337 337 338 339 340 341 342 343 344 345 346 347 348 347 347 347 348 350 350 351 352 353 353 353 352 351 349 348 347 344 341 340
325 331 335 334 331 323 326 342 340 330 336 338 336 339 340 342 355 358 347 346 351 346 343 346 345 341 339 337 335 337 338 337 337 338 338 339 340 342 344 345 347 347 348 349 349 349 349 348 349 350 350 351 352 352 352 352 350 348 347 345 344 341 340
331 338 337 323 323 331 342 350 341 332 336 339 339 341 340 339 344 348 348 347 349 346 341 340 340 337 337 338 337 338 338 335 337 338 338 339 340 341 344 346 347 350 351 352 352 351 350 350 351 351 351 351 351 351 351 351 349 347 344 343 343 341 340
330 337 336 324 328 344 352 346 339 337 340 344 343 339 339 344 344 342 343 340 341 341 335 333 335 336 336 337 336 336 336 334 334 335 334 336 336 336 337 338 341 345 348 350 351 351 351 351 352 352 352 351 351 350 350 349 348 346 344 343 342 340 339
334 336 335 337 339 339 340 342 339 337 338 344 345 337 336 344 345 341 340 340 341 339 333 333 335 334 336 339 337 334 335 334 334 333 333 333 334 334 333 334 334 337 339 341 345 347 349 351 353 353 352 352 351 350 349 347 346 344 343 342 341 339 337
342 341 336 339 334 329 336 343 339 334 334 340 352 348 341 341 339 336 340 343 343 341 336 333 333 334 341 345 340 336 335 335 334 334 334 333 333 333 333 334 335 335 336 338 341 344 348 352 354 354 352 351 350 348 347 345 343 342 342 341 341 338 338
345 346 337 333 327 329 342 346 340 334 331 335 347 345 339 341 336 333 338 340 339 338 334 331 334 338 344 345 340 336 335 334 334 334 335 335 334 335 335 335 336 337 339 341 342 345 349 352 354 354 353 352 350 347 345 342 339 340 340 341 340 341 342
347 346 337 332 331 336 342 340 337 333 331 337 341 332 334 342 336 332 336 336 335 334 331 331 336 340 343 342 337 334 334 334 334 335 336 336 335 336 336 337 337 339 340 340 342 347 350 351 354 353 351 349 347 344 343 340 338 338 339 340 340 342 342
348 344 335 332 335 341 341 336 335 332 334 349 345 334 338 342 334 333 335 333 333 334 331 333 337 337 337 337 334 333 333 333 333 335 336 336 336 337 337 338 339 340 339 342 346 350 352 353 353 351 345 341 340 338 336 335 337 339 341 342 343 343 342
346 348 344 337 335 338 337 335 336 334 338 345 340 336 339 338 333 336 336 334 335 336 334 336 337 336 335 335 334 332 331 331 334 336 337 337 338 340 341 342 342 340 339 343 349 352 353 353 353 353 347 342 341 339 335 335 340 343 344 344 345 344 341
347 353 350 340 336 337 335 337 343 344 343 342 337 335 336 335 334 335 334 334 335 333 333 336 336 335 336 336 335 333 332 334 338 338 339 339 340 342 343 343 343 340 339 346 353 356 357 355 354 352 348 344 343 344 341 339 341 345 346 346 345 342 338
351 352 346 337 335 335 334 337 342 342 340 339 336 334 335 334 334 335 334 334 333 331 332 333 332 333 334 334 335 334 334 336 340 341 341 341 340 340 340 341 342 342 344 350 356 358 358 357 354 351 347 345 344 345 343 338 339 346 347 343 341 338 337
345 346 342 338 336 333 331 334 335 334 335 335 335 335 335 335 334 334 334 334 333 333 332 331 332 334 333 333 333 333 334 336 339 341 342 342 343 344 344 345 345 344 346 349 353 355 357 357 354 349 346 346 345 343 341 337 339 344 344 340 339 341 340
338 336 335 336 334 331 331 332 331 331 332 331 332 332 333 333 335 335 334 333 334 335 332 332 335 335 334 335 334 334 336 338 338 340 342 343 346 347 345 344 342 342 346 348 350 354 354 352 350 347 345 346 343 338 339 339 341 343 341 339 338 336 333
338 337 338 338 335 332 332 331 331 331 331 330 331 331 330 330 332 334 336 337 336 335 335 334 335 335 333 333 333 335 336 337 337 339 341 341 343 343 341 339 339 341 345 348 351 352 350 346 346 345 343 342 339 337 339 341 342 340 336 332 329 327 325
344 343 341 338 333 330 331 331 331 331 331 330 331 331 331 331 329 329 333 336 336 335 335 335 334 334 332 331 332 333 335 336 338 338 338 339 341 341 340 341 343 347 349 350 351 350 346 344 343 342 342 342 341 340 339 337 337 335 329 324 324 325 326
344 343 339 336 333 332 331 331 331 332 330 331 331 330 331 332 331 328 329 334 337 337 336 335 334 332 332 331 331 331 332 335 338 339 339 340 341 342 343 346 349 351 351 350 348 344 342 342 342 341 343 343 340 338 336 332 329 327 324 322 323 325 327
345 345 341 338 338 337 334 330 331 331 330 330 330 329 329 329 330 328 326 329 335 337 337 337 335 333 333 333 332 331 332 334 338 340 340 340 341 343 347 349 348 347 346 345 343 341 340 341 340 339 339 338 335 332 330 326 322 321 322 322 323 324 326
343 343 338 333 334 336 332 330 330 329 328 328 327 326 327 327 326 326 325 325 328 330 331 333 331 331 333 334 333 333 332 333 335 338 339 340 341 342 344 345 343 342 343 342 340 338 338 339 337 335 334 335 334 329 324 321 321 322 323 323 322 324 324
333 334 333 329 329 331 328 327 326 325 325 326 326 325 326 325 324 325 325 324 324 324 325 326 325 326 332 335 335 335 333 333 334 335 336 338 339 341 341 341 340 340 341 340 337 337 338 338 335 331 330 331 329 324 321 322 324 324 323 322 321 321 320
325 325 327 326 326 326 325 324 324 323 324 324 324 324 324 323 323 323 323 323 323 323 324 324 324 325 329 333 336 336 335 334 333 332 334 336 338 339 339 338 338 338 339 338 337 338 338 334 329 325 325 326 324 322 323 324 324 324 323 321 319 319 318

ECMWFFLT2_850_thetae_030.txt.gz
Theta_e
323 324 325 325 325 324 324 323 323 324 328 330 326 325 332 331 327 331 331 331 336 335 338 347 347 347 345 338 337 335 335 338 338 338 340 341 344 345 346 347 346 347 347 347 348 347 348 348 348 349 349 348 349 350 351 349 343 341 340 340 341 342 343
323 322 324 326 324 326 326 321 324 328 324 331 335 327 328 328 326 331 329 326 328 328 338 354 349 344 345 343 340 336 335 337 337 338 339 340 343 344 345 346 346 347 347 347 348 347 347 347 347 348 347 347 348 349 350 347 343 341 339 339 341 342 343
325 322 321 323 323 323 326 324 326 327 322 326 330 326 326 325 325 330 328 326 330 329 336 350 344 341 344 342 341 340 338 337 336 337 339 339 342 343 344 346 346 347 348 347 348 348 348 347 346 347 346 347 348 349 349 346 342 341 339 340 342 343 343
323 324 320 319 321 321 323 325 324 325 328 328 326 325 327 325 327 331 326 323 331 334 336 342 341 343 344 340 343 343 339 335 335 337 338 339 341 342 344 345 346 347 348 348 348 348 347 346 345 347 348 347 347 347 347 344 342 341 341 341 342 343 344
321 323 323 320 322 323 322 322 322 322 325 328 326 326 329 329 330 332 327 324 334 342 339 341 342 343 342 340 345 344 336 334 336 337 337 338 340 341 342 344 345 346 347 348 348 348 348 347 346 347 349 348 346 346 346 343 342 341 341 341 342 343 344
320 324 328 325 324 325 324 322 323 323 324 324 322 322 327 329 329 332 331 324 332 345 343 339 339 343 342 340 342 342 336 333 335 337 337 338 339 340 341 342 343 345 346 347 348 348 349 349 348 348 348 348 347 346 346 344 342 341 340 340 341 343 344
324 326 328 325 323 324 325 323 324 325 326 324 319 320 326 326 324 331 331 321 331 356 353 342 343 344 339 335 336 338 335 333 335 336 336 338 339 339 340 341 342 343 345 346 347 348 349 349 348 346 347 348 347 346 346 345 342 340 340 341 341 343 344
326 325 327 326 324 324 323 323 325 324 324 324 322 327 333 328 324 328 325 321 338 373 367 351 345 340 335 333 334 335 334 335 336 335 337 338 338 339 339 340 342 342 344 346 346 348 348 348 348 347 347 348 347 347 347 346 344 341 340 342 343 343 344
321 322 323 322 321 323 324 327 326 323 326 327 326 331 331 325 326 329 325 324 340 367 369 352 345 346 347 337 332 335 335 335 336 336 337 338 338 339 339 340 341 342 343 345 345 346 347 346 346 346 347 348 348 347 347 346 346 343 342 344 344 344 346
319 319 321 323 325 327 328 330 326 324 327 325 326 329 323 322 329 330 328 332 341 354 357 347 344 354 359 345 333 335 337 335 337 338 337 338 339 338 339 339 341 342 343 344 344 345 345 345 346 346 347 348 348 347 347 347 348 346 345 345 345 346 347
321 321 327 334 336 328 323 326 325 325 326 324 329 329 323 329 334 330 339 346 336 338 347 345 347 352 356 353 340 335 336 336 337 338 337 338 339 338 339 339 340 342 342 343 344 344 345 345 345 346 346 347 347 347 347 348 348 349 348 346 346 346 347
322 325 329 334 334 325 322 325 324 325 326 324 326 325 327 338 331 325 349 359 334 332 348 350 354 354 351 351 341 334 336 337 337 338 337 338 338 338 339 339 339 341 341 342 343 343 344 345 345 346 346 346 347 347 347 348 349 351 351 349 348 347 347
324 326 325 328 330 327 327 327 325 325 326 324 323 324 330 339 328 322 346 358 339 337 349 348 352 354 347 344 338 335 337 337 336 338 337 338 339 338 339 339 339 340 340 341 342 342 343 344 344 345 346 346 347 347 348 349 350 351 351 351 350 349 350
325 324 322 326 326 326 326 326 327 327 326 325 324 325 330 333 330 329 342 351 344 339 344 346 342 338 335 334 333 335 337 337 337 337 337 338 339 339 339 340 339 339 340 340 341 341 342 342 343 344 344 346 346 346 347 349 349 351 351 351 352 351 349
324 323 324 325 322 324 324 322 326 326 323 326 323 323 331 331 329 334 339 343 343 339 342 343 332 328 332 334 334 335 337 337 337 337 338 338 339 339 340 340 340 340 340 340 340 340 341 340 341 342 343 344 345 346 347 347 349 350 350 352 352 349 346
322 323 324 324 322 323 321 319 324 324 322 325 323 325 335 334 331 336 336 335 338 340 342 339 332 333 338 337 334 334 335 338 338 338 338 339 338 339 339 340 340 340 339 339 339 338 339 340 340 340 342 343 344 345 345 346 348 350 351 352 351 349 348
324 325 322 324 322 318 319 322 323 322 324 327 325 326 334 336 335 336 332 331 336 341 342 340 339 342 342 337 333 334 335 338 338 338 339 338 339 340 340 340 340 339 338 337 337 338 338 339 339 339 341 342 343 343 344 346 348 351 352 352 351 350 349
327 330 325 324 320 317 326 338 333 325 325 325 325 329 336 341 343 342 340 340 343 342 340 341 343 341 338 335 334 334 336 337 338 339 339 339 340 340 340 340 339 339 338 338 338 338 338 338 338 339 341 342 342 344 345 347 349 351 351 351 351 350 349
329 330 324 320 321 327 340 346 337 331 326 324 331 338 342 344 345 347 350 349 347 345 339 335 335 333 331 332 333 334 336 336 338 339 339 340 340 339 340 339 339 339 338 337 337 337 337 338 339 341 342 342 344 346 347 349 350 351 351 351 351 350 349
325 324 321 321 329 340 343 339 337 338 333 331 336 337 336 339 341 347 356 356 353 348 336 328 329 330 330 332 332 333 335 336 337 339 339 339 339 338 338 339 338 338 337 337 338 338 339 340 341 342 343 344 346 347 349 350 351 352 351 351 351 350 349
331 330 326 328 333 335 337 339 339 337 334 334 338 338 335 336 336 340 352 357 351 344 334 328 329 332 333 335 335 333 334 336 337 338 337 337 337 338 338 339 339 339 338 338 338 337 337 336 336 338 341 344 347 348 349 351 352 352 352 351 351 351 351
338 336 329 330 330 329 340 348 339 333 333 332 335 338 335 335 335 334 341 347 346 342 338 332 331 333 339 343 340 335 334 335 336 338 338 338 339 338 338 338 338 337 336 335 334 333 333 333 333 334 336 341 346 348 349 351 352 352 352 352 352 352 352
335 334 332 337 336 334 344 350 339 333 332 331 333 334 332 335 336 331 334 340 340 337 335 333 334 337 342 345 340 334 334 336 336 337 338 338 338 337 337 336 334 334 333 334 333 334 334 334 334 333 334 338 342 346 348 350 351 352 352 352 352 352 352
339 339 339 340 339 337 340 341 336 333 331 331 332 331 333 338 335 329 330 335 334 331 330 333 340 342 341 341 336 333 334 336 334 335 335 334 336 335 333 333 333 333 334 334 335 336 335 335 335 333 334 336 339 343 347 349 350 350 350 351 351 352 351
344 341 338 336 338 340 338 335 333 330 330 329 329 331 335 336 331 330 331 331 331 330 331 336 342 341 337 337 335 333 335 335 334 335 334 334 335 334 332 334 334 334 335 334 334 336 337 337 335 333 334 335 337 342 345 347 348 349 350 350 350 351 350
340 339 337 334 337 337 332 330 330 330 332 335 334 334 335 331 330 333 334 332 334 336 336 338 342 342 341 341 336 334 334 334 333 334 333 333 334 333 333 335 334 334 335 335 336 338 338 338 336 334 334 335 337 341 342 344 347 348 349 350 349 349 349
338 339 336 331 334 335 329 331 337 339 340 340 335 333 333 333 333 335 335 336 337 338 339 340 342 343 343 341 338 337 337 336 336 336 336 336 337 336 338 338 337 336 338 339 341 341 340 338 337 335 335 337 338 340 341 344 348 349 349 348 348 348 347
340 342 339 331 333 333 329 331 338 338 336 335 334 334 335 335 336 335 335 337 336 334 337 338 338 339 338 337 337 339 340 340 340 339 340 340 340 338 339 339 337 336 337 339 342 342 338 337 337 337 339 341 342 343 345 348 349 349 349 348 347 346 346
337 339 340 334 332 331 329 330 331 331 333 334 335 336 337 337 337 336 336 335 332 330 331 331 331 333 333 333 335 336 337 338 337 336 337 338 338 337 336 337 338 337 337 340 342 342 339 339 340 342 343 344 345 346 348 350 350 350 348 347 345 344 344
337 335 335 332 330 329 329 330 329 330 334 336 335 336 336 336 336 334 334 334 332 329 329 328 328 327 327 328 329 329 329 330 329 330 333 334 336 337 337 338 339 339 339 340 341 342 341 342 344 345 345 345 345 346 349 350 349 348 346 345 343 342 341
344 343 338 333 331 330 329 328 329 329 332 333 334 335 335 334 334 333 332 333 331 330 330 329 329 328 327 327 326 326 325 326 326 328 329 329 331 334 337 339 341 340 341 342 341 342 344 345 346 346 346 346 346 348 350 349 346 345 343 341 340 339 340
346 346 338 332 330 329 328 328 327 328 329 330 331 332 332 332 332 332 332 331 331 331 331 330 330 330 328 327 328 327 326 326 325 325 326 327 327 328 330 334 338 341 344 344 343 344 346 348 348 348 347 347 348 350 349 346 343 342 341 339 338 337 338
339 336 333 332 333 332 330 328 328 327 327 328 328 328 329 329 329 329 329 329 330 330 330 329 329 327 326 326 328 328 327 328 328 327 327 328 327 326 327 328 331 336 340 341 343 347 349 350 350 349 348 347 347 348 346 343 341 340 339 338 336 336 336
337 335 334 333 336 336 333 329 327 326 325 325 326 326 326 326 326 326 326 327 327 327 327 327 326 326 327 330 332 332 333 333 332 331 330 329 328 328 329 329 331 335 338 340 344 347 349 350 349 348 346 344 345 345 344 342 340 339 338 337 335 335 336
333 332 331 330 331 332 329 326 326 325 323 323 324 323 323 323 324 325 325 325 326 327 327 326 327 327 329 332 334 334 334 333 333 331 330 329 329 328 327 327 331 336 338 339 341 344 346 347 347 346 344 342 344 344 342 340 339 338 338 337 336 336 335
326 324 325 325 324 323 323 323 324 323 321 322 322 321 322 322 322 323 324 324 325 326 327 327 328 329 330 332 334 334 334 335 335 333 332 330 329 329 328 330 333 337 338 339 339 340 342 344 344 344 342 342 343 342 340 337 335 334 335 335 334 333 330
323 321 321 321 320 320 321 321 321 321 321 321 321 321 321 321 321 322 322 322 323 324 325 326 327 328 330 331 332 334 336 337 337 336 334 333 332 332 332 333 336 337 338 338 338 338 339 341 342 342 341 341 342 340 337 334 331 330 330 330 329 330 328

ECMWFFLT2_850_thetae_033.txt.gz
Theta_e
321 322 323 324 323 322 322 322 320 322 327 327 324 322 326 325 321 325 328 327 329 332 333 338 339 337 339 341 340 340 340 341 341 342 343 343 344 344 343 343 343 344 344 344 344 344 344 345 345 346 346 345 346 346 346 347 347 347 347 347 348 349 347
320 322 323 323 324 324 322 319 321 324 324 327 329 324 323 323 320 323 327 324 325 325 328 338 343 338 339 341 340 340 341 342 341 341 342 342 342 342 342 343 343 343 344 344 344 344 344 345 345 345 346 345 345 346 346 346 347 347 347 348 348 349 347
321 321 321 321 323 323 322 322 325 325 320 323 329 325 322 321 320 321 324 324 325 324 326 335 338 339 344 345 344 341 340 341 342 341 341 340 340 341 341 343 343 343 344 344 344 344 344 344 345 345 345 345 346 346 346 346 346 347 347 347 348 349 348
321 320 319 318 319 321 322 323 324 324 322 324 325 324 321 320 320 320 322 323 324 327 332 335 335 342 349 349 348 345 341 341 341 341 341 339 339 341 340 341 342 343 344 344 344 344 344 344 344 345 345 345 345 345 345 346 346 346 347 347 348 349 348
319 319 319 318 320 321 320 320 321 321 323 324 324 324 322 320 321 321 321 321 322 330 339 340 340 344 347 348 348 348 345 342 340 339 339 338 339 339 340 340 341 342 343 343 344 344 344 345 344 345 346 346 346 345 344 345 345 346 347 347 348 349 348
317 320 321 322 322 323 321 321 321 321 323 322 319 321 323 321 322 323 322 319 321 332 341 341 344 344 341 344 346 345 344 341 339 338 337 337 339 338 339 340 339 342 342 343 344 345 345 346 345 346 346 346 346 346 345 344 345 346 346 346 346 348 348
321 322 323 322 321 323 323 322 323 323 324 322 317 319 322 321 322 323 322 319 322 339 350 341 341 345 340 340 343 341 341 338 337 337 336 337 338 337 339 339 339 341 341 343 344 344 345 345 345 346 346 345 346 346 345 345 345 345 344 344 345 346 348
324 322 323 322 320 322 322 321 325 323 323 323 321 325 328 324 321 321 322 319 320 342 365 350 341 343 339 336 338 339 339 337 334 335 335 335 337 337 339 339 340 341 342 343 343 344 344 345 345 346 346 346 346 345 346 345 345 345 344 345 344 344 348
321 320 321 321 320 321 320 322 324 322 325 326 323 331 332 324 322 322 320 318 320 341 366 354 341 339 337 335 336 337 338 336 335 335 334 335 335 336 338 339 339 341 341 342 343 343 344 344 345 346 345 346 346 346 346 345 345 345 345 346 344 343 348
319 319 319 320 321 322 321 323 324 322 325 324 323 327 324 321 327 328 320 319 325 343 356 347 341 342 340 340 339 337 336 334 335 336 334 335 336 336 337 338 339 340 341 342 343 344 344 344 345 345 345 346 346 346 346 346 346 346 346 347 345 345 351
320 321 325 327 326 322 319 322 322 322 324 323 326 325 320 324 329 326 327 329 327 335 345 344 345 346 344 346 344 340 337 333 335 336 335 335 336 336 337 338 339 340 341 342 343 343 344 344 344 345 345 346 346 346 347 347 347 348 348 349 349 351 354
324 326 329 328 326 322 321 322 322 322 323 324 325 322 325 334 327 319 334 347 332 329 342 348 350 350 348 351 348 343 338 335 336 337 335 336 336 336 337 338 338 340 340 341 342 343 343 344 344 345 345 346 346 346 347 348 349 349 349 350 352 353 353
325 326 326 326 325 324 323 323 322 323 323 323 324 324 330 339 326 319 339 354 338 332 338 343 348 352 350 349 344 340 337 336 337 337 336 336 337 336 337 337 338 339 339 341 341 341 342 342 343 344 344 345 346 346 347 348 348 349 350 350 352 352 353
324 325 324 326 325 323 323 323 323 324 324 323 324 325 329 334 330 328 342 352 344 335 335 340 343 342 342 341 337 336 337 336 337 337 337 337 337 337 337 338 338 338 339 340 340 340 341 341 342 343 343 344 344 345 346 347 348 349 349 350 351 352 353
323 324 323 324 323 323 323 322 324 324 323 324 324 325 329 331 332 333 339 343 342 337 338 342 340 336 336 338 339 338 337 337 338 339 338 338 338 337 337 338 338 338 338 339 339 339 340 340 341 341 342 342 343 344 345 346 347 348 348 349 351 352 352
321 323 323 323 322 323 321 321 324 323 322 322 322 325 328 329 331 334 332 331 334 337 339 339 337 337 338 341 344 342 338 336 338 339 338 338 338 338 337 338 338 338 338 339 339 340 340 340 340 340 341 342 342 343 344 345 346 347 348 349 350 351 352
322 324 324 321 321 320 318 320 324 324 324 324 323 325 328 329 330 332 329 328 333 339 341 338 337 339 341 342 342 340 337 336 337 337 338 338 338 338 338 338 338 339 339 339 339 339 338 338 338 338 340 341 341 342 344 344 345 346 348 349 350 351 352
323 325 324 321 320 318 320 326 327 325 324 325 323 323 326 328 330 333 334 336 340 342 339 339 340 341 341 339 336 335 336 336 335 336 337 338 338 338 338 338 339 339 339 339 339 338 337 337 337 338 339 340 341 342 343 344 345 346 347 348 349 350 351
324 326 323 321 320 321 327 334 332 327 324 325 326 326 328 329 330 333 337 338 342 345 339 338 340 339 336 334 332 333 334 334 336 337 338 339 339 339 338 339 339 339 339 339 338 336 336 336 338 339 340 340 341 342 343 344 345 346 347 348 349 349 350
325 325 322 322 325 329 332 334 331 328 327 325 324 325 329 333 331 332 335 335 340 344 340 337 336 333 332 333 332 332 332 333 335 336 337 338 338 338 339 338 339 339 339 339 337 336 338 339 340 341 341 342 343 343 344 345 345 347 347 348 349 349 350
327 324 321 324 328 329 331 334 334 332 331 329 328 326 331 337 335 333 336 337 338 340 338 336 334 332 333 335 336 334 333 333 334 334 336 338 338 339 339 339 339 339 339 340 339 339 340 339 338 339 339 341 342 343 345 346 347 348 348 349 349 350 350
327 325 323 325 325 324 330 335 334 334 333 333 333 331 333 338 336 334 337 338 339 340 338 336 335 334 335 337 338 336 333 333 335 336 337 338 338 339 339 339 340 340 339 339 338 337 336 334 333 334 334 336 338 340 343 345 346 347 348 349 350 350 350
327 325 324 325 323 326 335 336 333 333 333 333 333 328 329 336 336 334 336 336 337 339 338 337 338 337 336 338 339 336 334 335 336 336 338 339 339 340 340 339 339 338 336 336 334 334 334 333 332 332 333 334 335 337 340 342 344 346 347 348 349 350 351
328 327 326 326 326 331 335 333 332 333 333 334 331 324 327 338 338 334 335 336 336 338 338 338 339 339 339 341 339 334 333 336 337 338 339 339 338 338 337 335 335 334 333 333 334 334 334 332 332 331 332 332 333 334 337 340 342 344 346 348 349 350 350
330 329 326 326 329 334 333 331 332 333 332 331 328 326 333 340 337 334 336 335 335 337 338 337 340 340 339 337 335 334 335 337 339 340 340 338 336 334 334 334 334 334 334 334 334 334 335 334 334 333 333 333 333 333 335 337 340 344 347 348 349 350 351
331 331 327 326 329 332 331 331 332 332 330 329 330 333 336 337 335 336 336 333 334 338 341 344 345 343 341 339 338 337 339 339 338 338 336 335 334 333 333 334 334 334 334 335 335 336 337 337 337 335 334 334 334 334 335 338 342 345 347 348 349 349 350
335 334 327 325 329 332 332 332 334 334 333 333 335 337 337 337 338 340 339 339 341 344 346 348 348 349 349 348 347 345 344 343 342 340 337 336 336 336 336 336 336 336 336 336 337 338 338 338 337 335 335 336 336 336 338 342 344 346 347 348 348 348 349
337 337 333 330 333 334 332 332 333 333 333 334 336 338 339 338 339 341 342 344 345 347 348 348 348 350 350 349 349 348 347 347 346 346 344 342 341 341 341 341 341 339 339 339 339 338 337 337 337 336 337 338 337 338 341 343 345 347 348 348 348 347 348
339 340 341 339 336 334 333 332 332 331 332 334 337 339 339 339 338 339 340 341 341 343 344 344 344 344 343 342 341 341 341 341 340 340 339 339 340 340 340 340 340 339 340 339 338 337 338 338 338 338 339 339 339 340 341 342 344 348 349 348 347 347 346
337 336 337 335 334 334 332 331 331 330 330 332 334 335 337 336 335 336 336 335 335 335 334 334 335 334 332 331 330 330 330 330 329 329 329 330 333 335 336 336 337 337 338 338 337 338 338 338 338 339 341 342 341 340 340 340 344 348 349 348 347 346 345
335 337 336 332 333 334 331 330 330 329 328 329 329 330 332 333 333 333 333 333 332 330 327 326 328 327 326 325 326 325 326 326 326 326 325 325 326 328 328 329 331 330 329 329 333 335 336 337 339 341 341 341 339 339 340 343 346 348 347 346 345 344 343
336 339 337 333 332 333 330 331 331 328 326 326 326 327 329 331 332 332 331 331 331 329 328 327 326 326 326 326 326 326 327 327 327 327 327 326 325 325 326 327 328 328 327 329 332 333 334 337 341 341 340 339 338 339 340 343 346 347 345 343 342 342 341
334 335 335 334 335 333 330 330 329 326 325 324 325 327 329 329 329 329 329 328 328 328 330 329 328 328 328 326 326 326 326 326 327 327 327 326 324 324 325 326 326 327 330 333 336 337 339 341 343 342 342 341 341 341 341 341 344 344 343 341 340 339 339
335 334 333 334 337 337 333 329 325 324 324 324 324 326 327 328 329 328 328 328 328 329 331 332 332 332 332 331 330 331 331 331 330 329 327 327 326 326 327 328 329 330 334 337 339 340 342 344 344 343 343 343 343 342 341 342 343 343 342 341 338 336 338
330 329 329 328 330 330 328 325 323 322 322 323 323 324 324 326 327 328 328 328 329 330 332 334 335 336 335 335 334 334 334 334 332 330 329 328 329 330 330 332 335 336 337 339 340 341 342 343 342 341 342 342 341 341 341 342 343 342 341 339 337 336 337
323 323 324 324 324 323 322 322 322 322 322 322 322 322 323 323 324 325 326 326 327 329 330 331 333 334 335 335 335 335 335 335 334 333 332 331 331 332 332 334 336 337 337 338 338 338 339 338 339 339 340 340 341 340 340 342 342 341 339 337 336 335 336
323 322 322 322 322 323 322 321 321 321 321 322 321 321 321 322 322 322 323 323 324 326 326 326 328 329 331 333 333 334 334 334 334 334 334 333 333 333 333 334 335 336 336 335 335 335 335 336 337 338 338 339 339 339 340 341 342 340 338 337 336 335 334

ECMWFFLT2_850_thetae_036.txt.gz
Theta_e
324 323 324 325 323 322 323 323 321 324 330 329 322 321 323 323 321 322 324 326 329 330 334 337 337 337 335 336 338 339 343 346 346 348 350 349 350 350 351 352 352 350 346 343 343 342 342 343 343 343 343 344 344 344 345 345 345 345 345 346 346 346 346
323 325 324 324 325 325 324 320 322 328 330 329 325 321 322 322 320 321 322 323 325 324 327 334 335 335 334 334 336 336 340 346 347 348 348 349 350 350 351 352 352 350 346 343 342 342 342 342 342 343 343 343 344 344 345 345 345 345 345 346 346 346 347
323 325 324 322 324 326 325 324 327 327 323 323 324 322 321 321 320 320 320 321 323 322 324 331 334 334 336 335 335 334 337 345 349 348 348 348 349 350 351 352 352 353 349 345 342 342 343 343 342 342 342 343 344 343 345 345 344 344 344 345 346 346 347
323 323 321 318 320 324 325 325 328 327 323 322 323 323 322 321 320 320 319 319 322 326 329 332 335 336 336 335 336 336 335 342 348 349 347 349 350 350 351 351 352 351 347 345 343 342 343 343 342 342 342 343 343 343 344 344 345 345 345 345 346 346 347
321 319 320 319 320 322 321 321 322 324 324 324 324 324 323 321 319 320 320 319 320 328 335 335 335 337 336 335 335 336 335 336 343 349 349 349 351 351 350 351 351 349 347 347 348 347 345 344 343 342 342 343 343 343 344 344 345 345 345 345 346 345 346
318 319 323 323 322 323 323 321 320 322 323 322 321 321 323 322 320 319 320 319 320 329 337 335 335 335 334 335 335 335 336 334 336 347 349 348 351 351 350 350 351 352 351 350 352 352 350 348 347 344 344 345 344 343 344 344 344 345 345 345 345 346 346
322 324 325 324 323 324 324 324 324 324 324 321 318 318 321 321 321 321 320 319 323 331 336 335 335 335 334 334 335 334 334 333 338 348 350 348 350 351 350 349 349 351 353 352 352 354 352 351 350 347 347 349 347 344 344 344 344 345 345 346 345 346 346
326 326 326 326 325 324 322 323 325 324 323 323 322 323 324 322 320 321 320 318 323 331 339 339 336 335 334 333 334 335 336 337 343 349 348 348 350 351 350 349 347 349 352 353 350 350 351 351 352 350 347 348 348 346 346 346 345 344 345 350 349 346 345
323 323 324 324 323 323 322 322 324 324 325 326 324 326 325 322 321 322 320 318 323 332 342 344 342 338 335 333 334 337 341 343 346 349 349 347 349 351 349 347 348 349 352 353 348 347 349 348 350 349 347 348 347 346 347 348 347 346 349 354 354 347 343
320 320 320 321 321 323 322 322 324 324 324 324 323 322 320 319 322 323 321 320 325 333 339 340 341 339 335 335 334 333 338 344 346 349 351 349 348 348 346 346 349 351 353 353 348 346 347 347 347 347 346 347 347 345 345 346 350 353 355 358 356 348 343
321 321 324 326 325 323 320 321 322 323 324 325 323 320 317 320 323 322 323 326 325 330 335 335 336 336 334 335 334 332 337 345 347 348 349 349 348 344 342 345 350 352 352 351 347 345 345 345 345 344 343 345 345 344 344 347 354 358 359 359 357 351 346
325 326 328 329 328 324 322 322 322 322 324 324 322 319 319 324 321 318 326 331 326 328 334 335 335 335 334 334 333 334 336 343 349 350 348 348 348 346 343 342 346 351 351 348 346 345 344 343 343 343 343 344 344 345 346 350 356 359 360 360 357 354 351
327 328 328 328 328 327 326 324 323 324 324 323 321 320 323 325 321 320 327 331 328 330 333 333 334 334 334 334 334 332 331 337 349 354 352 349 350 349 344 338 340 347 349 347 346 346 345 343 342 342 343 344 345 346 348 351 355 359 361 359 357 356 355
327 328 328 328 327 326 326 325 325 325 325 324 323 323 324 325 323 324 328 330 331 332 332 332 333 333 333 332 332 332 330 336 347 354 353 350 349 349 345 339 337 340 344 345 345 346 344 341 341 342 342 343 343 345 346 348 351 357 359 358 356 356 355
325 328 328 327 327 325 324 325 326 326 325 325 324 324 325 325 325 326 327 327 330 332 332 333 332 331 332 332 333 333 333 336 343 350 351 349 349 349 346 342 338 337 342 345 345 344 341 338 340 341 340 342 342 344 346 346 348 354 355 354 356 356 355
322 326 327 327 327 326 323 323 325 326 325 324 324 325 326 325 324 326 324 323 328 331 331 332 332 331 331 333 334 335 336 339 343 348 350 349 349 349 346 343 340 338 340 342 341 340 339 338 340 340 340 342 342 342 345 346 349 353 354 353 353 353 353
321 325 326 326 325 322 320 322 326 327 326 326 326 326 327 327 326 325 323 324 329 331 330 332 333 330 330 335 338 338 341 345 347 349 350 350 350 349 345 342 340 339 341 343 343 340 339 339 339 340 341 341 341 342 343 346 349 352 353 352 350 350 354
322 325 326 326 323 319 321 325 328 328 327 327 326 326 327 327 327 327 326 328 332 332 331 332 334 332 333 337 340 340 343 349 351 351 350 350 351 352 349 347 345 345 349 350 346 340 338 339 340 340 341 340 341 342 342 344 347 349 350 349 348 352 355
324 325 326 323 320 322 327 331 332 329 328 328 327 328 328 328 328 328 329 331 331 331 332 333 333 333 335 338 342 345 346 347 349 350 350 351 352 352 352 352 350 348 348 346 344 339 338 340 340 340 341 341 341 341 342 343 344 345 346 345 348 353 354
327 326 324 322 324 327 329 333 334 332 332 330 327 326 326 327 329 329 329 330 329 331 333 332 332 337 341 342 343 343 341 340 342 343 345 349 351 352 352 349 347 346 342 340 340 338 338 340 340 340 340 341 341 342 342 343 343 344 345 345 348 350 350
330 326 322 324 326 326 329 336 338 337 336 335 333 330 330 330 329 328 330 330 329 330 331 331 335 340 342 341 339 338 338 336 335 336 340 344 348 350 346 342 342 342 339 338 338 339 339 339 339 340 340 340 342 342 342 343 343 343 344 345 346 347 347
329 326 325 326 324 324 331 338 338 337 336 337 337 335 334 334 329 329 330 331 331 333 331 332 340 341 338 336 334 335 338 336 334 336 340 342 345 347 344 343 344 341 338 339 339 338 339 339 339 340 341 341 342 342 343 343 343 344 345 346 346 347 347
327 326 327 327 323 328 338 339 336 336 336 336 336 331 330 334 336 334 330 330 333 334 332 336 343 341 335 333 333 337 341 341 339 340 342 344 347 349 347 346 345 341 338 339 339 338 339 340 341 341 340 339 338 338 338 340 341 344 345 346 347 348 348
325 326 327 326 326 334 340 336 334 337 336 337 334 327 328 339 345 342 340 337 335 332 334 342 344 339 334 334 338 342 343 341 341 343 345 348 349 349 347 344 341 339 339 339 339 340 341 340 339 337 335 334 332 332 334 336 339 342 344 346 348 348 348
325 326 325 325 329 337 338 335 336 337 335 335 332 328 334 344 344 342 343 342 341 339 342 344 342 340 340 342 344 343 342 344 346 347 347 348 349 350 349 345 340 338 340 340 339 339 337 335 334 333 331 331 330 331 333 336 339 343 346 347 348 349 351
324 325 325 326 330 336 337 335 337 336 334 333 333 335 341 344 343 343 343 340 340 343 344 343 342 342 344 345 345 346 347 350 351 352 353 354 355 354 348 343 341 341 341 339 336 335 333 332 332 332 332 331 331 332 334 337 340 343 345 347 348 350 352
324 325 326 326 329 335 337 336 337 337 336 336 338 341 344 344 343 345 345 343 341 342 344 345 346 346 349 351 353 354 355 356 357 357 357 356 353 349 345 345 346 344 339 337 336 336 336 335 334 333 332 332 332 333 334 336 338 339 342 344 345 348 351
324 322 326 330 333 336 337 337 337 338 337 337 338 340 343 344 344 346 348 349 346 346 349 351 351 353 355 356 356 356 355 355 355 354 353 351 349 348 347 347 345 341 338 339 340 340 338 337 336 335 334 333 334 334 334 334 335 336 337 338 340 345 348
328 327 331 337 338 338 337 337 338 336 335 335 336 338 341 342 343 345 348 350 349 351 353 354 354 356 356 355 356 356 356 356 356 355 353 352 350 347 344 342 341 340 340 340 339 337 337 336 335 335 335 335 335 334 335 335 335 336 337 338 341 346 348
334 335 338 339 339 338 337 336 335 334 333 333 334 336 338 339 341 343 345 346 348 349 350 352 353 354 353 354 355 356 357 358 358 358 357 356 353 348 344 341 340 339 338 337 336 337 337 336 335 335 335 335 335 335 335 336 338 340 342 344 346 349 349
332 333 337 338 338 338 337 336 334 333 332 333 333 335 336 337 339 341 341 342 344 344 345 346 347 347 349 352 353 353 353 352 352 352 352 351 349 347 344 341 338 337 337 337 336 335 335 335 334 334 334 334 335 336 338 338 340 342 345 346 347 348 348
334 336 339 339 338 336 334 333 333 333 332 332 332 333 335 335 336 337 337 338 341 343 344 343 342 342 344 346 348 349 348 346 343 342 341 339 338 338 337 336 335 334 333 334 334 333 334 336 336 335 337 338 339 340 341 341 342 342 343 344 345 345 346
336 337 338 337 337 335 331 330 330 330 330 331 331 332 333 334 335 336 335 336 338 341 343 345 346 345 344 343 344 345 345 342 337 334 334 335 334 334 334 333 332 331 333 334 335 336 338 340 341 341 342 342 342 341 342 341 341 340 340 342 343 344 345
335 335 336 337 337 336 333 330 329 328 329 330 329 330 331 332 333 335 335 334 335 337 339 342 346 347 347 346 344 342 342 339 333 330 329 329 329 329 330 329 329 330 334 336 337 339 341 343 343 343 342 342 342 341 341 341 340 339 340 341 343 343 344
332 332 335 336 335 334 331 329 326 326 327 328 328 329 330 330 330 332 333 333 333 333 334 336 338 341 343 343 342 342 340 336 331 329 327 326 327 328 328 327 328 328 330 333 335 337 339 341 342 342 341 341 340 340 340 339 339 339 340 342 342 342 342
330 330 332 333 331 330 328 327 326 325 325 326 326 327 328 329 328 328 330 330 330 330 331 332 333 335 336 336 336 338 338 335 331 329 327 326 328 330 329 329 330 330 332 334 336 337 338 339 339 340 340 339 339 339 338 338 339 341 342 342 342 342 341
329 329 329 330 329 328 327 327 327 326 325 325 324 325 325 327 326 326 326 326 327 328 329 330 330 331 332 333 334 334 335 334 333 333 334 332 332 333 333 331 330 332 334 335 336 337 337 337 337 337 337 337 337 337 338 340 342 343 342 340 340 341 341